RYR425M EHEH-LERS

Flight info

Callsign RYR425M
Flight time 1h 50m
Altitude 35000
Route WOODY N872 CIV/N0444F370 N872 MEDIL DCT KOVIN DCT DUCRA UM728 RESMI UN857 DISAK DCT DIRMO DCT VALKU DCT ATSUP DCT MINSO DCT DEGOL DCT PPG DCT ALBER P84 GIR
Aircraft B738/M-SDE2E3FGHIRWXY/LB1

Departure

Time 2026-04-28 06:18
Airport Eindhoven Airport (EHEH)

Arrival

Time 2026-04-28 08:08
Airport Reus Airport (LERS)
Time Latitude Longitude Altitude Speed Heading
2026-04-28 05:47 51.45720 5.38895 66 ft 0 kts 125°
2026-04-28 06:06 51.45725 5.38883 66 ft 3 kts 124°
2026-04-28 06:06 51.45736 5.38856 69 ft 3 kts 118°
2026-04-28 06:06 51.45744 5.38827 63 ft 3 kts 106°
2026-04-28 06:06 51.45747 5.38797 63 ft 3 kts 77°
2026-04-28 06:07 51.45742 5.38777 63 ft 1 kts 36°
2026-04-28 06:07 51.45741 5.38775 63 ft 1 kts 35°
2026-04-28 06:10 51.45749 5.38785 74 ft 4 kts 35°
2026-04-28 06:10 51.45784 5.38781 72 ft 8 kts 324°
2026-04-28 06:10 51.45811 5.38731 66 ft 5 kts 307°
2026-04-28 06:10 51.45823 5.38706 71 ft 4 kts 305°
2026-04-28 06:11 51.45849 5.38647 72 ft 10 kts 306°
2026-04-28 06:11 51.45904 5.38523 70 ft 16 kts 306°
2026-04-28 06:11 51.45965 5.38390 67 ft 12 kts 304°
2026-04-28 06:11 51.45988 5.38335 65 ft 1 kts 301°
2026-04-28 06:12 51.45983 5.38265 68 ft 12 kts 231°
2026-04-28 06:12 51.45896 5.38162 74 ft 19 kts 214°
2026-04-28 06:12 51.45773 5.38023 74 ft 24 kts 215°
2026-04-28 06:12 51.45620 5.37852 67 ft 29 kts 215°
2026-04-28 06:13 51.45458 5.37669 74 ft 27 kts 214°
2026-04-28 06:13 51.45306 5.37499 66 ft 26 kts 216°
2026-04-28 06:13 51.45165 5.37341 65 ft 24 kts 214°
2026-04-28 06:13 51.45033 5.37194 66 ft 23 kts 216°
2026-04-28 06:14 51.44905 5.37052 69 ft 22 kts 214°
2026-04-28 06:14 51.44781 5.36912 68 ft 21 kts 215°
2026-04-28 06:14 51.44661 5.36777 72 ft 21 kts 215°
2026-04-28 06:14 51.44543 5.36647 69 ft 20 kts 215°
2026-04-28 06:15 51.44430 5.36520 71 ft 20 kts 215°
2026-04-28 06:15 51.44320 5.36397 71 ft 19 kts 215°
2026-04-28 06:15 51.44229 5.36294 74 ft 12 kts 215°
2026-04-28 06:15 51.44178 5.36273 71 ft 4 kts 162°
2026-04-28 06:16 51.44158 5.36300 67 ft 4 kts 129°
2026-04-28 06:16 51.44140 5.36336 70 ft 5 kts 126°
2026-04-28 06:16 51.44120 5.36417 71 ft 11 kts 95°
2026-04-28 06:16 51.44175 5.36512 74 ft 13 kts 35°
2026-04-28 06:17 51.44345 5.36703 64 ft 61 kts 35°
2026-04-28 06:17 51.44872 5.37295 73 ft 123 kts 35°
2026-04-28 06:17 51.45704 5.38240 204 ft 162 kts 36°
2026-04-28 06:18 51.47560 5.40331 1700 ft 164 kts 40°
2026-04-28 06:18 51.48510 5.41473 2188 ft 184 kts 40°
2026-04-28 06:18 51.49623 5.42714 2472 ft 202 kts 38°
2026-04-28 06:18 51.50876 5.43892 2823 ft 218 kts 27°
2026-04-28 06:19 51.52421 5.44270 3221 ft 240 kts 357°
2026-04-28 06:19 51.54073 5.43320 3658 ft 263 kts 328°
2026-04-28 06:19 51.55207 5.41112 4695 ft 257 kts 292°
2026-04-28 06:19 51.55551 5.38352 5584 ft 254 kts 266°
2026-04-28 06:20 51.55243 5.35455 5818 ft 278 kts 256°
2026-04-28 06:20 51.54767 5.32337 6301 ft 286 kts 255°
2026-04-28 06:20 51.54278 5.29294 7235 ft 282 kts 255°
2026-04-28 06:20 51.53800 5.26181 7819 ft 290 kts 256°
2026-04-28 06:21 51.53339 5.23029 8565 ft 290 kts 256°
2026-04-28 06:21 51.52882 5.19859 9258 ft 294 kts 256°
2026-04-28 06:21 51.52418 5.16642 9987 ft 295 kts 256°
2026-04-28 06:21 51.51950 5.13404 10531 ft 304 kts 255°
2026-04-28 06:22 51.51455 5.09992 10708 ft 324 kts 256°
2026-04-28 06:22 51.50927 5.06354 10888 ft 343 kts 256°
2026-04-28 06:22 51.50377 5.02560 11331 ft 352 kts 256°
2026-04-28 06:22 51.49836 4.98832 11882 ft 358 kts 256°
2026-04-28 06:23 51.49270 4.94940 12564 ft 360 kts 255°
2026-04-28 06:23 51.48696 4.91008 13258 ft 362 kts 255°
2026-04-28 06:23 51.48121 4.87074 14023 ft 363 kts 255°
2026-04-28 06:23 51.47537 4.83121 14678 ft 365 kts 255°
2026-04-28 06:24 51.46952 4.79138 15327 ft 368 kts 255°
2026-04-28 06:24 51.46365 4.75144 16070 ft 368 kts 255°
2026-04-28 06:24 51.45773 4.71144 16745 ft 370 kts 254°
2026-04-28 06:24 51.45172 4.67104 17362 ft 374 kts 254°
2026-04-28 06:25 51.44575 4.63088 17979 ft 377 kts 254°
2026-04-28 06:25 51.43963 4.58985 18600 ft 380 kts 254°
2026-04-28 06:25 51.43347 4.54857 19159 ft 382 kts 254°
2026-04-28 06:25 51.42727 4.50711 19724 ft 384 kts 254°
2026-04-28 06:26 51.42102 4.46550 20290 ft 385 kts 254°
2026-04-28 06:26 51.41466 4.42363 20836 ft 387 kts 252°
2026-04-28 06:26 51.40394 4.38439 21317 ft 386 kts 233°
2026-04-28 06:26 51.38563 4.35324 21873 ft 385 kts 217°
2026-04-28 06:27 51.36250 4.33166 22392 ft 387 kts 205°
2026-04-28 06:27 51.33787 4.31395 22866 ft 390 kts 204°
2026-04-28 06:27 51.31297 4.29612 23317 ft 393 kts 204°
2026-04-28 06:27 51.28804 4.27774 23782 ft 396 kts 205°
2026-04-28 06:28 51.26307 4.25876 24184 ft 398 kts 206°
2026-04-28 06:28 51.23811 4.23960 24650 ft 398 kts 206°
2026-04-28 06:28 51.21313 4.22051 25130 ft 398 kts 206°
2026-04-28 06:28 51.18812 4.20151 25499 ft 400 kts 206°
2026-04-28 06:29 51.16277 4.18269 25837 ft 404 kts 204°
2026-04-28 06:29 51.13625 4.16741 26193 ft 406 kts 200°
2026-04-28 06:29 51.10942 4.15299 26567 ft 408 kts 200°
2026-04-28 06:29 51.08246 4.13851 26929 ft 410 kts 200°
2026-04-28 06:30 51.05536 4.12389 27275 ft 412 kts 200°
2026-04-28 06:30 51.02819 4.10914 27606 ft 414 kts 200°
2026-04-28 06:30 51.00091 4.09430 27945 ft 416 kts 200°
2026-04-28 06:30 50.97350 4.07937 28266 ft 418 kts 200°
2026-04-28 06:31 50.94592 4.06434 28587 ft 419 kts 200°
2026-04-28 06:31 50.91829 4.04932 28897 ft 421 kts 200°
2026-04-28 06:31 50.89045 4.03422 29196 ft 423 kts 200°
2026-04-28 06:31 50.86271 4.01842 29495 ft 425 kts 202°
2026-04-28 06:32 50.83521 4.00110 29783 ft 426 kts 204°
2026-04-28 06:32 50.80841 3.98360 30061 ft 427 kts 204°
2026-04-28 06:32 50.78106 3.96566 30500 ft 424 kts 205°
2026-04-28 06:32 50.75386 3.94793 30849 ft 423 kts 205°
2026-04-28 06:33 50.72651 3.93026 31006 ft 427 kts 204°
2026-04-28 06:33 50.69894 3.91256 31167 ft 429 kts 204°
2026-04-28 06:33 50.67120 3.89485 31444 ft 430 kts 204°
2026-04-28 06:33 50.64350 3.87721 31722 ft 430 kts 204°
2026-04-28 06:34 50.61570 3.85951 31920 ft 432 kts 204°
2026-04-28 06:34 50.58815 3.84200 32123 ft 434 kts 204°
2026-04-28 06:34 50.56022 3.82407 32389 ft 433 kts 205°
2026-04-28 06:34 50.53251 3.80537 32667 ft 433 kts 206°
2026-04-28 06:35 50.50487 3.78630 32854 ft 435 kts 206°
2026-04-28 06:35 50.47709 3.76709 33054 ft 437 kts 206°
2026-04-28 06:35 50.44925 3.74794 33277 ft 437 kts 205°
2026-04-28 06:35 50.42131 3.72885 33519 ft 438 kts 205°
2026-04-28 06:36 50.39328 3.70978 33714 ft 440 kts 205°
2026-04-28 06:36 50.36517 3.69071 33935 ft 441 kts 205°
2026-04-28 06:36 50.33695 3.67159 34130 ft 442 kts 205°
2026-04-28 06:36 50.30872 3.65250 34343 ft 442 kts 205°
2026-04-28 06:37 50.28048 3.63342 34562 ft 442 kts 205°
2026-04-28 06:37 50.25229 3.61440 34765 ft 442 kts 205°
2026-04-28 06:37 50.22406 3.59536 34950 ft 442 kts 205°
2026-04-28 06:37 50.19582 3.57634 35143 ft 442 kts 205°
2026-04-28 06:38 50.16756 3.55733 35340 ft 442 kts 205°
2026-04-28 06:38 50.13929 3.53833 35514 ft 442 kts 205°
2026-04-28 06:38 50.11108 3.51941 35776 ft 440 kts 206°
2026-04-28 06:38 50.08306 3.50064 36057 ft 438 kts 206°
2026-04-28 06:39 50.05506 3.48190 36247 ft 438 kts 206°
2026-04-28 06:39 50.02705 3.46316 36389 ft 439 kts 206°
2026-04-28 06:39 49.99899 3.44442 36514 ft 440 kts 206°
2026-04-28 06:39 49.97085 3.42565 36680 ft 440 kts 206°
2026-04-28 06:40 49.94275 3.40694 36880 ft 439 kts 206°
2026-04-28 06:40 49.91467 3.38826 37032 ft 439 kts 206°
2026-04-28 06:40 49.88666 3.36966 37115 ft 438 kts 206°
2026-04-28 06:41 49.83055 3.33246 37119 ft 438 kts 206°
2026-04-28 06:41 49.77486 3.29562 37118 ft 438 kts 206°
2026-04-28 06:42 49.71880 3.25864 37114 ft 438 kts 206°
2026-04-28 06:42 49.66284 3.22181 37118 ft 437 kts 206°
2026-04-28 06:43 49.60691 3.18510 37114 ft 437 kts 206°
2026-04-28 06:43 49.55106 3.14850 37112 ft 436 kts 206°
2026-04-28 06:44 49.49524 3.11195 37112 ft 435 kts 207°
2026-04-28 06:44 49.44375 3.06474 37110 ft 430 kts 217°
2026-04-28 06:45 49.39416 3.01343 37105 ft 430 kts 217°
2026-04-28 06:45 49.34536 2.96343 37107 ft 430 kts 217°
2026-04-28 06:46 49.29550 2.91291 37100 ft 430 kts 217°
2026-04-28 06:46 49.24553 2.86255 37090 ft 430 kts 217°
2026-04-28 06:47 49.19557 2.81233 37102 ft 429 kts 217°
2026-04-28 06:47 49.14564 2.76226 37105 ft 429 kts 217°
2026-04-28 06:48 49.09569 2.71227 37100 ft 429 kts 217°
2026-04-28 06:48 49.04574 2.66239 37079 ft 429 kts 217°
2026-04-28 06:49 49.00422 2.62101 37118 ft 429 kts 217°
2026-04-28 06:49 48.95429 2.57139 37104 ft 429 kts 217°
2026-04-28 06:50 48.90431 2.52183 37100 ft 429 kts 217°
2026-04-28 06:50 48.85430 2.47232 37100 ft 429 kts 217°
2026-04-28 06:51 48.80425 2.42287 37099 ft 429 kts 217°
2026-04-28 06:51 48.75419 2.37354 37106 ft 429 kts 217°
2026-04-28 06:52 48.70415 2.32434 37102 ft 429 kts 217°
2026-04-28 06:52 48.65406 2.27518 37097 ft 429 kts 217°
2026-04-28 06:53 48.60425 2.22644 37097 ft 429 kts 216°
2026-04-28 06:53 48.55068 2.18601 37097 ft 436 kts 201°
2026-04-28 06:54 48.49118 2.16570 37091 ft 440 kts 195°
2026-04-28 06:54 48.43124 2.14743 37089 ft 440 kts 196°
2026-04-28 06:55 48.37144 2.12841 37078 ft 439 kts 196°
2026-04-28 06:55 48.31169 2.10925 37079 ft 439 kts 195°
2026-04-28 06:56 48.25018 2.10527 37074 ft 450 kts 176°
2026-04-28 06:56 48.18822 2.11990 37055 ft 450 kts 175°
2026-04-28 06:57 48.12632 2.13319 37062 ft 448 kts 179°
2026-04-28 06:57 48.06442 2.13792 37069 ft 445 kts 182°
2026-04-28 06:58 48.00259 2.14041 37073 ft 444 kts 182°
2026-04-28 06:58 47.94101 2.14334 37066 ft 443 kts 182°
2026-04-28 06:59 47.87952 2.14675 37073 ft 442 kts 182°
2026-04-28 06:59 47.81807 2.15032 37077 ft 441 kts 182°
2026-04-28 07:00 47.75685 2.15389 37057 ft 440 kts 183°
2026-04-28 07:00 47.69577 2.15743 37058 ft 439 kts 183°
2026-04-28 07:01 47.63477 2.16094 37068 ft 438 kts 183°
2026-04-28 07:01 47.57386 2.16444 37060 ft 438 kts 183°
2026-04-28 07:02 47.51290 2.16793 37058 ft 438 kts 183°
2026-04-28 07:02 47.45200 2.17141 37059 ft 438 kts 183°
2026-04-28 07:03 47.39101 2.17488 37060 ft 439 kts 183°
2026-04-28 07:03 47.32992 2.17836 37052 ft 439 kts 183°
2026-04-28 07:04 47.26884 2.18183 37055 ft 440 kts 183°
2026-04-28 07:04 47.20759 2.18530 37055 ft 441 kts 183°
2026-04-28 07:05 47.14624 2.18877 37035 ft 442 kts 183°
2026-04-28 07:05 47.08480 2.19656 37038 ft 450 kts 173°
2026-04-28 07:06 47.02508 2.22725 37055 ft 458 kts 163°
2026-04-28 07:06 46.96604 2.26292 37049 ft 460 kts 163°
2026-04-28 07:07 46.90672 2.29827 37039 ft 461 kts 163°
2026-04-28 07:07 46.84756 2.33288 37046 ft 461 kts 163°
2026-04-28 07:08 46.78787 2.36749 37040 ft 462 kts 163°
2026-04-28 07:08 46.72816 2.40201 37043 ft 461 kts 163°
2026-04-28 07:09 46.66853 2.43643 37035 ft 461 kts 163°
2026-04-28 07:09 46.60901 2.47071 37041 ft 460 kts 163°
2026-04-28 07:10 46.54961 2.50484 37041 ft 458 kts 163°
2026-04-28 07:10 46.49052 2.53872 37037 ft 456 kts 164°
2026-04-28 07:11 46.43159 2.57242 37042 ft 454 kts 164°
2026-04-28 07:11 46.37287 2.60591 37045 ft 453 kts 164°
2026-04-28 07:12 46.31415 2.63933 37038 ft 453 kts 164°
2026-04-28 07:12 46.25542 2.67267 37048 ft 454 kts 164°
2026-04-28 07:13 46.19663 2.70598 37045 ft 454 kts 164°
2026-04-28 07:13 46.13769 2.73930 37042 ft 455 kts 164°
2026-04-28 07:14 46.07868 2.77259 37041 ft 456 kts 164°
2026-04-28 07:14 46.01955 2.80588 37044 ft 456 kts 164°
2026-04-28 07:15 45.96045 2.83841 37039 ft 456 kts 165°
2026-04-28 07:15 45.90120 2.86954 37043 ft 457 kts 166°
2026-04-28 07:16 45.84153 2.90096 37040 ft 457 kts 166°
2026-04-28 07:16 45.78177 2.93225 37044 ft 455 kts 169°
2026-04-28 07:16 45.75122 2.94160 37044 ft 445 kts 181°
2026-04-28 07:17 45.72059 2.94265 37034 ft 437 kts 190°
2026-04-28 07:17 45.66206 2.92605 37041 ft 427 kts 200°
2026-04-28 07:18 45.60443 2.90563 37029 ft 426 kts 199°
2026-04-28 07:18 45.54685 2.88568 37044 ft 425 kts 199°
2026-04-28 07:19 45.48944 2.86603 37025 ft 423 kts 199°
2026-04-28 07:19 45.43222 2.84652 37039 ft 422 kts 199°
2026-04-28 07:20 45.37514 2.82710 37032 ft 422 kts 199°
2026-04-28 07:20 45.31813 2.80774 37031 ft 421 kts 199°
2026-04-28 07:21 45.26126 2.78847 37034 ft 420 kts 199°
2026-04-28 07:21 45.20442 2.76924 37029 ft 420 kts 199°
2026-04-28 07:22 45.11928 2.74052 37036 ft 419 kts 199°
2026-04-28 07:22 45.06254 2.72142 37040 ft 420 kts 199°
2026-04-28 07:23 45.00567 2.70231 37038 ft 421 kts 199°
2026-04-28 07:23 44.94907 2.68334 37039 ft 422 kts 199°
2026-04-28 07:24 44.89191 2.66423 37055 ft 423 kts 199°
2026-04-28 07:24 44.83462 2.64511 37051 ft 423 kts 199°
2026-04-28 07:25 44.77732 2.62603 37039 ft 423 kts 199°
2026-04-28 07:25 44.72004 2.60699 37047 ft 423 kts 198°
2026-04-28 07:26 44.66274 2.58798 37040 ft 423 kts 198°
2026-04-28 07:26 44.60550 2.56903 37032 ft 423 kts 198°
2026-04-28 07:27 44.54831 2.55014 37039 ft 422 kts 198°
2026-04-28 07:27 44.49121 2.53131 37048 ft 421 kts 198°
2026-04-28 07:28 44.43413 2.51253 37051 ft 421 kts 198°
2026-04-28 07:28 44.37711 2.49380 37036 ft 421 kts 198°
2026-04-28 07:29 44.32010 2.47512 37050 ft 421 kts 198°
2026-04-28 07:29 44.26346 2.45659 37044 ft 421 kts 198°
2026-04-28 07:30 44.20628 2.43792 37043 ft 422 kts 198°
2026-04-28 07:30 44.14901 2.41926 37035 ft 423 kts 198°
2026-04-28 07:31 44.09161 2.40059 37038 ft 424 kts 198°
2026-04-28 07:31 44.03409 2.38193 37045 ft 425 kts 198°
2026-04-28 07:32 43.97646 2.36326 37028 ft 426 kts 198°
2026-04-28 07:32 43.91867 2.34459 37044 ft 427 kts 198°
2026-04-28 07:33 43.86067 2.32588 37043 ft 429 kts 198°
2026-04-28 07:33 43.80250 2.30715 37030 ft 430 kts 198°
2026-04-28 07:34 43.74415 2.28841 37038 ft 431 kts 197°
2026-04-28 07:34 43.68576 2.26969 37041 ft 431 kts 197°
2026-04-28 07:35 43.62740 2.25102 37039 ft 430 kts 197°
2026-04-28 07:35 43.56907 2.23240 37047 ft 429 kts 197°
2026-04-28 07:36 43.51089 2.21386 37044 ft 429 kts 197°
2026-04-28 07:36 43.45291 2.19543 36983 ft 425 kts 197°
2026-04-28 07:37 43.42420 2.18632 36660 ft 420 kts 197°
2026-04-28 07:37 43.40514 2.18029 36427 ft 415 kts 197°
2026-04-28 07:37 43.37715 2.17144 36078 ft 410 kts 197°
2026-04-28 07:37 43.34985 2.16280 35688 ft 406 kts 197°
2026-04-28 07:38 43.32243 2.15412 35316 ft 403 kts 197°
2026-04-28 07:38 43.29520 2.14550 34948 ft 400 kts 197°
2026-04-28 07:38 43.26821 2.13697 34569 ft 397 kts 197°
2026-04-28 07:38 43.24141 2.12850 34200 ft 394 kts 197°
2026-04-28 07:39 43.21473 2.12008 33801 ft 392 kts 197°
2026-04-28 07:39 43.18830 2.11175 33381 ft 389 kts 197°
2026-04-28 07:39 43.16201 2.10348 33006 ft 385 kts 197°
2026-04-28 07:39 43.13598 2.09529 32637 ft 382 kts 197°
2026-04-28 07:40 43.11021 2.08719 32276 ft 379 kts 197°
2026-04-28 07:40 43.08455 2.07913 31918 ft 376 kts 197°
2026-04-28 07:40 43.05913 2.07116 31563 ft 374 kts 197°
2026-04-28 07:40 43.03388 2.06324 31217 ft 371 kts 197°
2026-04-28 07:41 43.00881 2.05539 30873 ft 369 kts 197°
2026-04-28 07:41 42.98392 2.04760 30518 ft 367 kts 196°
2026-04-28 07:41 42.95913 2.03984 30182 ft 365 kts 196°
2026-04-28 07:41 42.93441 2.03211 29776 ft 363 kts 196°
2026-04-28 07:42 42.90988 2.02446 29417 ft 360 kts 196°
2026-04-28 07:42 42.88561 2.01689 29044 ft 356 kts 196°
2026-04-28 07:42 42.86159 2.00941 28720 ft 352 kts 196°
2026-04-28 07:42 42.83777 2.00200 28353 ft 350 kts 196°
2026-04-28 07:43 42.81491 1.99488 28015 ft 347 kts 196°
2026-04-28 07:43 42.79146 1.98759 27677 ft 344 kts 196°
2026-04-28 07:43 42.76817 1.98035 27335 ft 342 kts 196°
2026-04-28 07:43 42.74510 1.97319 26994 ft 339 kts 196°
2026-04-28 07:44 42.72218 1.96608 26671 ft 337 kts 196°
2026-04-28 07:44 42.69935 1.95900 26341 ft 335 kts 196°
2026-04-28 07:44 42.67665 1.95197 26014 ft 334 kts 196°
2026-04-28 07:44 42.65405 1.94497 25671 ft 332 kts 196°
2026-04-28 07:45 42.63161 1.93803 25350 ft 330 kts 196°
2026-04-28 07:45 42.60929 1.93112 25028 ft 328 kts 196°
2026-04-28 07:45 42.58706 1.92426 24706 ft 327 kts 196°
2026-04-28 07:45 42.56494 1.91743 24383 ft 326 kts 196°
2026-04-28 07:46 42.54288 1.91063 24066 ft 325 kts 195°
2026-04-28 07:46 42.52088 1.90385 23737 ft 324 kts 195°
2026-04-28 07:46 42.49888 1.89707 23384 ft 323 kts 195°
2026-04-28 07:46 42.47703 1.89034 23023 ft 322 kts 195°
2026-04-28 07:47 42.45521 1.88364 22684 ft 320 kts 195°
2026-04-28 07:47 42.43358 1.87699 22358 ft 318 kts 195°
2026-04-28 07:47 42.41208 1.87039 22033 ft 315 kts 195°
2026-04-28 07:47 42.39074 1.86385 21711 ft 313 kts 195°
2026-04-28 07:48 42.36956 1.85735 21397 ft 311 kts 195°
2026-04-28 07:48 42.34852 1.85090 21078 ft 309 kts 195°
2026-04-28 07:48 42.32764 1.84451 20794 ft 307 kts 195°
2026-04-28 07:48 42.30714 1.83824 20495 ft 305 kts 195°
2026-04-28 07:49 42.28652 1.83193 20185 ft 303 kts 195°
2026-04-28 07:49 42.26596 1.82565 19886 ft 302 kts 194°
2026-04-28 07:49 42.24551 1.81940 19576 ft 301 kts 194°
2026-04-28 07:49 42.22514 1.81318 19282 ft 300 kts 194°
2026-04-28 07:50 42.20474 1.80695 18975 ft 301 kts 194°
2026-04-28 07:50 42.18428 1.80073 18669 ft 303 kts 194°
2026-04-28 07:50 42.16352 1.79440 18360 ft 310 kts 193°
2026-04-28 07:50 42.14224 1.78791 17985 ft 315 kts 193°
2026-04-28 07:51 42.12090 1.78142 17656 ft 314 kts 193°
2026-04-28 07:51 42.09966 1.77496 17317 ft 312 kts 193°
2026-04-28 07:51 42.07853 1.76855 16994 ft 310 kts 193°
2026-04-28 07:51 42.05753 1.76218 16676 ft 308 kts 193°
2026-04-28 07:52 42.03669 1.75586 16363 ft 306 kts 193°
2026-04-28 07:52 42.01596 1.74958 16053 ft 304 kts 193°
2026-04-28 07:52 41.99539 1.74334 15753 ft 303 kts 193°
2026-04-28 07:52 41.97488 1.73714 15447 ft 301 kts 193°
2026-04-28 07:53 41.95447 1.73091 15140 ft 300 kts 193°
2026-04-28 07:53 41.93412 1.72479 14845 ft 300 kts 193°
2026-04-28 07:53 41.91380 1.71869 14533 ft 299 kts 193°
2026-04-28 07:53 41.89357 1.71259 14230 ft 297 kts 193°
2026-04-28 07:54 41.87343 1.70651 13921 ft 296 kts 193°
2026-04-28 07:54 41.85338 1.70045 13599 ft 295 kts 193°
2026-04-28 07:54 41.83337 1.69442 13265 ft 294 kts 193°
2026-04-28 07:54 41.81346 1.68842 12951 ft 292 kts 193°
2026-04-28 07:55 41.79367 1.68246 12647 ft 291 kts 193°
2026-04-28 07:55 41.77399 1.67654 12344 ft 289 kts 193°
2026-04-28 07:55 41.75440 1.67065 12043 ft 288 kts 192°
2026-04-28 07:55 41.73488 1.66480 11750 ft 287 kts 193°
2026-04-28 07:56 41.71543 1.65895 11449 ft 286 kts 193°
2026-04-28 07:56 41.69603 1.65313 11160 ft 285 kts 192°
2026-04-28 07:56 41.67669 1.64732 10856 ft 284 kts 192°
2026-04-28 07:56 41.65743 1.64155 10575 ft 284 kts 192°
2026-04-28 07:57 41.63814 1.63580 10262 ft 284 kts 193°
2026-04-28 07:57 41.61906 1.63008 10126 ft 278 kts 193°
2026-04-28 07:57 41.60026 1.62444 9854 ft 277 kts 193°
2026-04-28 07:57 41.58149 1.61883 9562 ft 276 kts 192°
2026-04-28 07:58 41.56285 1.61325 9266 ft 274 kts 192°
2026-04-28 07:58 41.54429 1.60771 8984 ft 272 kts 192°
2026-04-28 07:58 41.52582 1.60219 8696 ft 271 kts 192°
2026-04-28 07:58 41.50745 1.59675 8402 ft 270 kts 192°
2026-04-28 07:59 41.48913 1.59125 8129 ft 270 kts 192°
2026-04-28 07:59 41.47076 1.58580 7845 ft 271 kts 192°
2026-04-28 07:59 41.45218 1.58029 7510 ft 276 kts 192°
2026-04-28 07:59 41.43343 1.57468 7187 ft 276 kts 192°
2026-04-28 08:00 41.41472 1.56912 6904 ft 276 kts 192°
2026-04-28 08:00 41.39605 1.56356 6695 ft 272 kts 191°
2026-04-28 08:00 41.37775 1.55813 6505 ft 267 kts 191°
2026-04-28 08:00 41.35983 1.55280 6370 ft 261 kts 191°
2026-04-28 08:01 41.34235 1.54749 6195 ft 256 kts 194°
2026-04-28 08:01 41.32568 1.53820 5779 ft 264 kts 206°
2026-04-28 08:01 41.30939 1.52682 5443 ft 265 kts 205°
2026-04-28 08:01 41.29306 1.51593 5204 ft 260 kts 205°
2026-04-28 08:02 41.27695 1.50542 4878 ft 256 kts 204°
2026-04-28 08:02 41.26112 1.49519 4599 ft 250 kts 204°
2026-04-28 08:02 41.24585 1.48518 4464 ft 239 kts 208°
2026-04-28 08:02 41.23442 1.47001 4240 ft 235 kts 244°
2026-04-28 08:03 41.22881 1.45022 4051 ft 225 kts 249°
2026-04-28 08:03 41.22355 1.43111 3848 ft 217 kts 248°
2026-04-28 08:03 41.21826 1.41244 3604 ft 214 kts 248°
2026-04-28 08:03 41.21302 1.39407 3368 ft 211 kts 248°
2026-04-28 08:04 41.20795 1.37605 3128 ft 204 kts 249°
2026-04-28 08:04 41.20327 1.35886 2915 ft 192 kts 248°
2026-04-28 08:04 41.19861 1.34279 2732 ft 179 kts 248°
2026-04-28 08:04 41.19428 1.32799 2525 ft 167 kts 248°
2026-04-28 08:05 41.19024 1.31419 2366 ft 156 kts 248°
2026-04-28 08:05 41.18629 1.30065 2144 ft 157 kts 248°
2026-04-28 08:05 41.18236 1.28721 1923 ft 155 kts 248°
2026-04-28 08:05 41.17849 1.27396 1715 ft 154 kts 248°
2026-04-28 08:06 41.17463 1.26069 1511 ft 154 kts 248°
2026-04-28 08:06 41.17079 1.24765 1309 ft 150 kts 248°
2026-04-28 08:06 41.16705 1.23461 1128 ft 151 kts 250°
2026-04-28 08:06 41.16343 1.22167 1015 ft 153 kts 248°
2026-04-28 08:07 41.15941 1.20832 768 ft 153 kts 248°
2026-04-28 08:07 41.15557 1.19514 470 ft 154 kts 249°
2026-04-28 08:07 41.15175 1.18211 267 ft 149 kts 249°
2026-04-28 08:07 41.14833 1.17036 241 ft 114 kts 248°
2026-04-28 08:08 41.14624 1.16325 241 ft 52 kts 249°
2026-04-28 08:08 41.14534 1.16016 241 ft 12 kts 250°
2026-04-28 08:08 41.14551 1.15915 241 ft 12 kts 319°
2026-04-28 08:08 41.14621 1.15872 241 ft 11 kts 338°
2026-04-28 08:09 41.14676 1.15844 241 ft 7 kts 339°
2026-04-28 08:09 41.14709 1.15827 241 ft 5 kts 339°
2026-04-28 08:09 41.14725 1.15818 241 ft 2 kts 338°
2026-04-28 08:09 41.14740 1.15811 241 ft 2 kts 339°
2026-04-28 08:10 41.14741 1.15810 241 ft 0 kts 339°